User: anonymous
Location: Unspecified
(0.0000°N, 0.0000°E)
Time: 23:59:14
(UTC+00:00)
Language:

Tiros 10 - Orbit

View from above orbital plane
View from above orbital plane
View from above satellite
View from above satellite

Ground track
Ground track

The orbit data is extracted from the following two-line orbital elements,

1 01430U 65051A   14294.08268405  .00000325  00000-0  11426-3 0  7195
2 01430 098.0742 124.8442 0055632 314.4625 045.2022 14.39935760583470
Epoch (UTC): 21 October 2014 01:59:03
Eccentricity: 0.0055632
inclination: 98.0742°
perigee height: 719 km
apogee height: 798 km
right ascension of ascending node: 124.8442°
argument of perigee: 314.4625°
revolutions per day: 14.39935760
mean anomaly at epoch: 45.2022°
orbit number at epoch: 58347

The dashed part of the orbit path shows where the satellite is in the earth's shadow,  

DLR